Hourly Data Report for October 04, 2020

VICTORIA UNIVERSITY CS
BRITISH COLUMBIA
Current Station Operator: ECCC - MSC

48°27'25.200" N
123°18'16.600" W
60.10 m
1018598
71783
WYJ

Download Data

Hourly Data (October 2020)
Hourly Data Report for October 4, 2020
TIME
LST
Temp Definition
°C
Dew Point Definition
°C
Rel Hum Definition
%
Precip. Amount Definition
mm

Wind Dir Definition
10's deg

Wind Spd Definition
km/h
Visibility Definition
km
Stn Press Definition
kPa
Hmdx Definition


Wind Chill Definition


Weather Definition


00:00 9.4 9.3 99 0.0 7 1   101.08     LegendNANA
01:00 8.9 8.8 99 0.0 0 1   101.07     LegendNANA
02:00 8.9 8.8 99 0.0 30 2   101.09     LegendNANA
03:00 10.8 10.7 99 0.0 25 2   101.10     LegendNANA
04:00 11.3 11.2 99 0.0 29 2   101.10     LegendNANA
05:00 10.7 10.6 99 0.0 15 2   101.13     LegendNANA
06:00 11.0 10.9 99 0.0   0   101.13     LegendNANA
07:00 10.9 10.8 99 0.0   0   101.17     LegendNANA
08:00 11.8 11.7 99 0.0   0   101.19     LegendNANA
09:00 12.6 12.2 97 0.0 9 2   101.23     LegendNANA
10:00 13.6 12.5 93 0.0 9 2   101.25     LegendNANA
11:00 13.8 12.2 90 0.0 8 3   101.28     LegendNANA
12:00 14.5 11.9 84 0.0 9 3   101.31     LegendNANA
13:00 15.9 12.2 79 0.0 9 4   101.29     LegendNANA
14:00 16.2 11.8 75 0.0 8 4   101.33     LegendNANA
15:00 14.6 11.6 82 0.0 3 4   101.37     LegendNANA
16:00 14.2 11.9 86 0.0 2 4   101.39     LegendNANA
17:00 13.7 12.4 92 0.0 34 6   101.39     LegendNANA
18:00 13.8 12.4 91 0.0   0   101.43     LegendNANA
19:00 12.7 12.0 95 0.0 0 1   101.48     LegendNANA
20:00 12.4 12.0 97 0.0   0   101.52     LegendNANA
21:00 10.6 10.5 99 0.0 30 2   101.58     LegendNANA
22:00 11.0 10.9 100 0.0   0   101.62     LegendNANA
23:00 9.9 9.8 99 0.0   0   101.65     LegendNANA

Notes on Data Quality.

Legend

  • E = Estimated
  • M = Missing
  • NA = Not Available*
  • [empty] = Indicates an unobserved value
Date modified: